{"data":{"norad_id":64473,"intl_designator":"2025-133B","name":"STARLINK-34492","alt_names":[],"object_type":"PAYLOAD","status":"ACTIVE","operator":null,"country":"US","launch_date":"2025-06-23","launch_site_code":"AFETR","launch_vehicle":null,"mission":null,"orbit_class":"UNKNOWN","rcs_meters":null,"size_class":null,"mass_kg":null,"dimensions":null,"purposes":["comms"],"wikipedia_slug":null,"has_3d_model":false,"image_url":null,"decayed_at":null,"tle_current":{"epoch":"2026-05-25T05:24:07.947072Z","epoch_age_seconds":66315,"freshness":"FRESH","line1":"1 64473U 25133B   26145.22509198  .00026484  00000+0  90367-3 0  9993","line2":"2 64473  53.1566 121.4941 0001775 102.2904 257.8296 15.30180167 52909","mean_motion":15.30180167,"eccentricity":0.0001775,"inclination_deg":53.1566,"raan_deg":121.4941,"arg_perigee_deg":102.2904,"mean_anomaly_deg":257.8296,"bstar":0.00090367,"rev_number":5290,"period_min":94.106565426423,"perigee_km":474.05780731842,"apogee_km":476.4907683256,"semimajor_km":6853.411287822,"source":"CELESTRAK","updated_at":"2026-05-25T13:38:20.455846Z"}}}